Regional Weather Roundup
Issued by NWS

Home | Current Version | Previous Version | Text Only | Print | Product List | Glossary Off
Versions: 1 2 3 4 5 6 7 8 9 10 11 12 13 14 15 16 17 18 19 20 21 22 23 24 25 26 27 28 29 30 31 32 33 34 35 36 37 38 39 40 41 42 43 44 45 46 47 48 49 50

000
ASUS44 KMEG 300410
RWRTN
TENNESSEE HOURLY STATE WEATHER ROUNDUP
NATIONAL WEATHER SERVICE MEMPHIS TN
1100 PM CDT SAT AUG 29 2015

TNZ002-004-019-021-049-052-054-088>092-300500-
WEST TENNESSEE

CITY           SKY/WX    TMP DP  RH WIND       PRES   REMARKS
MEMPHIS INTL   CLOUDY    82  69  64 S10       30.03S
NWS MEMPHIS      N/A     80 N/A N/A MISG        N/A
JACKSON        CLOUDY    77  71  82 SE6       30.05S
DYERSBURG      CLOUDY   N/A N/A N/A MISG        N/A
UNION CITY     PTCLDY    73  73 100 CALM      30.04R
PARIS          CLEAR     73  68  83 SE6       30.07S
LEXINGTON      CLEAR     73  66  78 VRB5      30.07S
$$

TNZ008-025-027-028-033-062-065-066-300500-
NORTH MIDDLE TENNESSEE

CITY           SKY/WX    TMP DP  RH WIND       PRES   REMARKS
NASHVILLE      PTCLDY    71  66  84 S6        30.10F
CLARKSVILLE    MOCLDY    74  68  81 S6        30.07S
SMYRNA         CLEAR     69  68  97 CALM      30.11F
COOKEVILLE     CLEAR     70  66  88 CALM      30.12F
CROSSVILLE     MOCLDY    72  65  78 CALM      30.18S
$$

TNZ061-075-076-078-094-096-097-300500-
SOUTH MIDDLE TENNESSEE

CITY           SKY/WX    TMP DP  RH WIND       PRES   REMARKS
FAYETTEVILLE     N/A     68  66  94 CALM      30.11F
TULLAHOMA      CLEAR     70  66  88 SE5       30.13S
WINCHESTER     CLEAR     70  66  88 SE3       30.13S
MCMINNVILLE    CLEAR     68  68 100 CALM      30.13S
COLUMBIA       CLEAR     70  70 100 CALM      30.08F
SHELBYVILLE    CLEAR     72  70  94 CALM      30.12S
$$

TNZ017-018-042-046-047-300500-
NORTHEAST TENNESSEE

CITY           SKY/WX    TMP DP  RH WIND       PRES   REMARKS
TRI CITIES     CLOUDY    68  66  93 CALM      30.18S
ELIZABETHTON   CLEAR     64  61  88 CALM      30.19S
$$

TNZ012-013-036-069-073-074-300500-
CENTRAL EAST TENNESSEE

CITY           SKY/WX    TMP DP  RH WIND       PRES   REMARKS
KNOXVILLE      CLOUDY    75  66  73 CALM      30.14S
OAK RIDGE      PTCLDY    74  65  73 CALM      30.15F
GATLINBURG     CLEAR     72  64  78 CALM      30.14S
MORRISTOWN     CLEAR     70  66  88 CALM      30.17S
$$

TNZ083-085-099-300500-
SOUTHEAST TENNESSEE

CITY           SKY/WX    TMP DP  RH WIND       PRES   REMARKS
CHATTANOOGA    CLOUDY    73  68  84 CALM      30.13F
$$

SKY/WX REPORTED AS FAIR MEANS FEW OR NO CLOUDS BELOW
12 THOUSAND FEET.



USA.gov is the U.S. government's official web portal to all federal, state and local government web resources and services.